Radiation Dose at Monitoring Post of Fukushima Daiichi Nuclear Power Station
Date,Time,MP-1(microSv/h),MP-2(microSv/h),MP-3(microSv/h),MP-4(microSv/h),MP-5(microSv/h),MP-6(microSv/h),MP-7(microSv/h),MP-8(microSv/h),Wind Direction,Wind Velocity(m/s),Rain
2018/11/26,00:00,0.785,1.184,0.830,1.487,1.072,0.456,0.804,0.763,west-northwest,4.4,No
2018/11/26,00:10,0.783,1.183,0.831,1.487,1.073,0.457,0.803,0.760,west,4.5,No
2018/11/26,00:20,0.784,1.185,0.832,1.489,1.071,0.456,0.804,0.763,west-southwest,5.3,No
2018/11/26,00:30,0.783,1.183,0.832,1.489,1.071,0.455,0.804,0.758,west,5.5,No
2018/11/26,00:40,0.784,1.186,0.830,1.486,1.071,0.456,0.804,0.760,west-northwest,5.2,No
2018/11/26,00:50,0.783,1.184,0.830,1.486,1.069,0.455,0.804,0.760,west-northwest,5.9,No
2018/11/26,01:00,0.783,1.183,0.828,1.487,1.068,0.456,0.803,0.759,west,5.5,No
2018/11/26,01:10,0.785,1.183,0.830,1.488,1.070,0.457,0.804,0.761,west,4.9,No
2018/11/26,01:20,0.785,1.183,0.828,1.488,1.070,0.456,0.803,0.760,west,5.0,No
2018/11/26,01:30,0.785,1.186,0.829,1.487,1.073,0.456,0.804,0.763,west-southwest,4.4,No
2018/11/26,01:40,0.786,1.182,0.831,1.487,1.069,0.457,0.803,0.761,west,3.9,No
2018/11/26,01:50,0.785,1.185,0.831,1.486,1.071,0.456,0.803,0.763,west-southwest,2.5,No
2018/11/26,02:00,0.784,1.184,0.829,1.485,1.070,0.457,0.804,0.761,west,3.2,No
2018/11/26,02:10,0.784,1.184,0.830,1.491,1.068,0.455,0.803,0.762,west,3.2,No
2018/11/26,02:20,0.785,1.184,0.831,1.489,1.069,0.457,0.803,0.761,west-southwest,3.4,No
2018/11/26,02:30,0.786,1.184,0.833,1.485,1.070,0.455,0.804,0.761,west-southwest,3.4,No
2018/11/26,02:40,0.784,1.184,0.831,1.488,1.070,0.455,0.804,0.759,west,5.1,No
2018/11/26,02:50,0.783,1.185,0.831,1.489,1.070,0.454,0.803,0.760,west,6.0,No
2018/11/26,03:00,0.783,1.184,0.831,1.486,1.070,0.456,0.803,0.761,west,4.4,No
2018/11/26,03:10,0.785,1.183,0.831,1.490,1.070,0.456,0.804,0.761,west,4.4,No
2018/11/26,03:20,0.785,1.183,0.830,1.489,1.071,0.457,0.803,0.759,southwest,3.8,No
2018/11/26,03:30,0.787,1.186,0.829,1.487,1.068,0.456,0.803,0.762,southwest,3.0,No
2018/11/26,03:40,0.785,1.185,0.831,1.488,1.070,0.455,0.804,0.761,west,4.1,No
2018/11/26,03:50,0.784,1.185,0.831,1.489,1.070,0.456,0.804,0.762,west,5.1,No
2018/11/26,04:00,0.784,1.184,0.831,1.489,1.071,0.455,0.804,0.760,west,4.7,No
2018/11/26,04:10,0.784,1.184,0.832,1.490,1.069,0.456,0.804,0.760,west-northwest,4.8,No
2018/11/26,04:20,0.785,1.182,0.830,1.489,1.073,0.457,0.805,0.761,northwest,4.9,No
2018/11/26,04:30,0.783,1.185,0.833,1.487,1.068,0.456,0.803,0.762,west-northwest,6.2,No
2018/11/26,04:40,0.785,1.185,0.831,1.489,1.070,0.457,0.801,0.761,west-northwest,5.4,No
2018/11/26,04:50,0.783,1.185,0.831,1.489,1.071,0.455,0.802,0.761,west-northwest,4.4,No
2018/11/26,05:00,0.784,1.184,0.830,1.489,1.069,0.454,0.803,0.759,north-northwest,6.1,No
2018/11/26,05:10,0.785,1.185,0.829,1.489,1.069,0.455,0.804,0.760,north-northwest,7.3,No
2018/11/26,05:20,0.783,1.184,0.831,1.489,1.069,0.455,0.804,0.759,northwest,7.9,No
2018/11/26,05:30,0.782,1.185,0.830,1.487,1.068,0.456,0.805,0.762,north-northwest,9.1,No
2018/11/26,05:40,0.787,1.183,0.830,1.489,1.070,0.454,0.804,0.759,northwest,9.9,No
2018/11/26,05:50,0.782,1.183,0.830,1.490,1.069,0.455,0.804,0.761,north-northwest,7.8,No
2018/11/26,06:00,0.782,1.185,0.831,1.490,1.070,0.454,0.804,0.761,north-northwest,5.9,No
2018/11/26,06:10,0.785,1.184,0.832,1.488,1.072,0.455,0.804,0.760,north-northwest,6.9,No
2018/11/26,06:20,0.783,1.183,0.830,1.488,1.071,0.454,0.804,0.760,northwest,5.3,No
2018/11/26,06:30,0.785,1.184,0.830,1.488,1.072,0.455,0.804,0.760,north-northwest,5.9,No
2018/11/26,06:40,0.783,1.184,0.831,1.489,1.070,0.456,0.805,0.760,northwest,5.6,No
2018/11/26,06:50,0.783,1.180,0.829,1.488,1.069,0.454,0.803,0.761,northwest,5.5,No
2018/11/26,07:00,0.783,1.182,0.829,1.490,1.070,0.456,0.802,0.761,north-northwest,5.4,No
2018/11/26,07:10,0.781,1.182,0.828,1.490,1.069,0.454,0.804,0.759,northwest,6.6,No
2018/11/26,07:20,0.782,1.185,0.830,1.490,1.069,0.453,0.805,0.761,northwest,6.3,No
2018/11/26,07:30,0.784,1.184,0.829,1.489,1.067,0.454,0.804,0.759,northwest,5.4,No
2018/11/26,07:40,0.784,1.184,0.830,1.489,1.067,0.453,0.804,0.760,west-northwest,6.6,No
2018/11/26,07:50,0.783,1.183,0.827,1.488,1.068,0.454,0.804,0.760,west-northwest,5.6,No
2018/11/26,08:00,0.784,1.184,0.829,1.488,1.069,0.455,0.805,0.761,west-northwest,3.7,No
2018/11/26,08:10,0.782,1.183,0.829,1.489,1.066,0.455,0.804,0.760,west-northwest,2.3,No
2018/11/26,08:20,0.783,1.183,0.829,1.492,1.066,0.455,0.805,0.760,west-northwest,3.1,No
2018/11/26,08:30,0.782,1.181,0.828,1.487,1.068,0.453,0.805,0.759,west-northwest,2.8,No
2018/11/26,08:40,0.783,1.185,0.830,1.488,1.071,0.454,0.803,0.761,west,1.5,No
2018/11/26,08:50,0.783,1.183,0.827,1.489,1.070,0.451,0.804,0.761,east,1.7,No
2018/11/26,09:00,0.783,1.181,0.830,1.489,1.067,0.453,0.805,0.760,southeast,1.2,No
2018/11/26,09:10,0.784,1.178,0.829,1.489,1.069,0.454,0.804,0.760,east-northeast,1.1,No
2018/11/26,09:20,0.782,1.182,0.830,1.489,1.069,0.454,0.804,0.762,north-northwest,1.4,No
2018/11/26,09:30,0.783,1.176,0.830,1.490,1.071,0.453,0.803,0.760,east-southeast,1.7,No
2018/11/26,09:40,0.783,1.181,0.831,1.490,1.070,0.454,0.803,0.760,east-southeast,2.3,No
2018/11/26,09:50,0.783,1.179,0.830,1.490,1.072,0.454,0.802,0.759,east,2.6,No
2018/11/26,10:00,0.785,1.183,0.830,1.488,1.069,0.455,0.803,0.762,east-southeast,2.6,No
2018/11/26,10:10,0.786,1.174,0.831,1.491,1.072,0.455,0.803,0.761,east-southeast,3.2,No
2018/11/26,10:20,0.782,1.179,0.832,1.487,1.070,0.455,0.803,0.761,east-southeast,1.7,No
2018/11/26,10:30,0.783,1.178,0.829,1.488,1.071,0.454,0.803,0.761,east-southeast,2.3,No
2018/11/26,10:40,0.785,1.176,0.830,1.486,1.071,0.454,0.803,0.762,southeast,0.6,No
2018/11/26,10:50,0.783,1.183,0.830,1.489,1.071,0.454,0.803,0.762,east,2.5,No
2018/11/26,11:00,0.784,1.179,0.831,1.490,1.074,0.454,0.804,0.761,east-southeast,2.0,No
2018/11/26,11:10,0.784,1.183,0.829,1.490,1.073,0.452,0.804,0.763,east-southeast,2.9,No
2018/11/26,11:20,0.783,1.180,0.831,1.491,1.071,0.454,0.804,0.762,east-northeast,2.9,No
2018/11/26,11:30,0.783,1.178,0.829,1.488,1.069,0.454,0.802,0.760,east-northeast,3.3,No
2018/11/26,11:40,0.784,1.180,0.829,1.488,1.071,0.453,0.804,0.762,north-northeast,3.2,No
2018/11/26,11:50,0.785,1.180,0.830,1.490,1.068,0.454,0.803,0.762,east-northeast,3.2,No
2018/11/26,12:00,0.785,1.181,0.829,1.490,1.071,0.455,0.803,0.763,north-northeast,3.4,No
2018/11/26,12:10,0.785,1.184,0.830,1.491,1.073,0.458,0.804,0.762,north,5.3,No
2018/11/26,12:20,0.786,1.182,0.831,1.491,1.069,0.457,0.804,0.759,north-northeast,4.5,No
2018/11/26,12:30,0.785,1.183,0.830,1.489,1.069,0.458,0.803,0.758,north,5.4,No
2018/11/26,12:40,0.783,1.183,0.831,1.491,1.072,0.458,0.802,0.759,north-northeast,6.1,No
2018/11/26,12:50,0.785,1.183,0.830,1.492,1.072,0.456,0.804,0.759,north-northeast,5.8,No
2018/11/26,13:00,0.784,1.179,0.831,1.491,1.071,0.457,0.804,0.759,northeast,7.3,No
2018/11/26,13:10,0.784,1.179,0.828,1.491,1.071,0.456,0.805,0.758,north-northeast,6.4,No
2018/11/26,13:20,0.783,1.182,0.828,1.491,1.072,0.457,0.804,0.759,northeast,6.6,No
2018/11/26,13:30,0.784,1.184,0.831,1.492,1.071,0.454,0.805,0.759,northeast,6.4,No
2018/11/26,13:40,0.785,1.181,0.830,1.490,1.070,0.457,0.805,0.759,northeast,5.6,No
2018/11/26,13:50,0.783,1.180,0.831,1.490,1.070,0.457,0.803,0.757,northeast,5.4,No
2018/11/26,14:00,0.784,1.177,0.829,1.490,1.071,0.455,0.803,0.759,east-northeast,4.1,No
2018/11/26,14:10,0.782,1.178,0.831,1.489,1.071,0.457,0.803,0.758,east,4.1,No
2018/11/26,14:20,0.786,1.181,0.831,1.490,1.071,0.456,0.803,0.760,east-northeast,3.9,No
2018/11/26,14:30,0.788,1.179,0.831,1.488,1.071,0.455,0.804,0.757,east-northeast,3.2,No
2018/11/26,14:40,0.785,1.180,0.832,1.490,1.072,0.457,0.804,0.759,east-northeast,3.2,No
2018/11/26,14:50,0.784,1.182,0.832,1.491,1.071,0.457,0.804,0.761,northeast,3.0,No
2018/11/26,15:00,0.787,1.185,0.833,1.491,1.071,0.456,0.805,0.759,east-northeast,2.9,No
2018/11/26,15:10,0.786,1.185,0.833,1.491,1.072,0.458,0.804,0.761,east,2.8,No
2018/11/26,15:20,0.788,1.185,0.830,1.489,1.075,0.455,0.806,0.761,east,2.6,No
2018/11/26,15:30,0.787,1.187,0.833,1.489,1.073,0.456,0.805,0.762,east,2.3,No
2018/11/26,15:40,0.788,1.188,0.833,1.488,1.070,0.456,0.805,0.761,east-northeast,2.2,No
2018/11/26,15:50,0.787,1.186,0.831,1.490,1.072,0.455,0.805,0.762,east,2.6,No
2018/11/26,16:00,0.787,1.189,0.832,1.491,1.071,0.458,0.805,0.762,east,2.3,No
2018/11/26,16:10,0.785,1.188,0.831,1.491,1.073,0.456,0.806,0.761,east-northeast,2.0,No
2018/11/26,16:20,0.788,1.188,0.830,1.490,1.076,0.457,0.806,0.762,east,2.2,No
2018/11/26,16:30,0.786,1.189,0.831,1.488,1.075,0.458,0.804,0.762,east-northeast,1.7,No
2018/11/26,16:40,0.786,1.187,0.830,1.489,1.073,0.457,0.805,0.762,east,2.3,No
2018/11/26,16:50,0.786,1.188,0.831,1.488,1.075,0.456,0.804,0.761,east,1.5,No
2018/11/26,17:00,0.786,1.190,0.829,1.490,1.073,0.456,0.804,0.761,east-southeast,0.6,No
2018/11/26,17:10,0.784,1.189,0.830,1.489,1.071,0.456,0.805,0.760,east-southeast,0.9,No
2018/11/26,17:20,0.787,1.189,0.831,1.489,1.075,0.455,0.806,0.762,east-southeast,0.8,No
2018/11/26,17:30,0.786,1.188,0.832,1.491,1.074,0.456,0.804,0.760,south-southeast,0.8,No
2018/11/26,17:40,0.784,1.191,0.832,1.488,1.074,0.456,0.804,0.760,south,0.6,No
2018/11/26,17:50,0.784,1.188,0.832,1.492,1.073,0.457,0.805,0.760,south-southwest,1.4,No
2018/11/26,18:00,0.785,1.187,0.833,1.490,1.072,0.454,0.804,0.761,southwest,1.5,No
2018/11/26,18:10,0.784,1.189,0.833,1.492,1.073,0.457,0.803,0.761,southwest,1.5,No
2018/11/26,18:20,0.785,1.189,0.833,1.490,1.075,0.458,0.804,0.761,southwest,1.5,No
2018/11/26,18:30,0.785,1.188,0.830,1.489,1.074,0.456,0.806,0.760,east,1.2,No
2018/11/26,18:40,0.785,1.188,0.831,1.486,1.073,0.456,0.803,0.761,northeast,2.2,No
2018/11/26,18:50,0.784,1.187,0.832,1.485,1.072,0.454,0.805,0.760,northeast,2.0,No
2018/11/26,19:00,0.785,1.189,0.830,1.486,1.072,0.455,0.803,0.761,north-northeast,2.8,No
2018/11/26,19:10,0.785,1.189,0.831,1.487,1.074,0.455,0.804,0.760,north,2.6,No
2018/11/26,19:20,0.786,1.189,0.831,1.487,1.073,0.456,0.803,0.759,north,2.3,No
2018/11/26,19:30,0.786,1.184,0.831,1.487,1.072,0.455,0.802,0.759,north-northwest,1.7,No
2018/11/26,19:40,0.787,1.188,0.833,1.488,1.073,0.455,0.804,0.760,west,0.9,No
2018/11/26,19:50,0.784,1.185,0.834,1.486,1.073,0.455,0.803,0.761,west-southwest,0.9,No
2018/11/26,20:00,0.786,1.186,0.831,1.488,1.074,0.454,0.803,0.761,southwest,1.5,No
2018/11/26,20:10,0.783,1.187,0.830,1.488,1.073,0.454,0.803,0.761,southwest,1.7,No
2018/11/26,20:20,0.783,1.185,0.831,1.488,1.072,0.455,0.805,0.761,southwest,2.0,No
2018/11/26,20:30,0.785,1.186,0.830,1.488,1.072,0.456,0.805,0.760,southwest,2.3,No
2018/11/26,20:40,0.786,1.186,0.831,1.487,1.072,0.455,0.805,0.761,south-southwest,2.3,No
2018/11/26,20:50,0.782,1.185,0.830,1.485,1.072,0.456,0.805,0.760,south-southwest,2.9,No
2018/11/26,21:00,0.784,1.183,0.829,1.486,1.073,0.456,0.804,0.760,south-southwest,3.1,No
2018/11/26,21:10,0.785,1.185,0.830,1.486,1.072,0.453,0.803,0.758,south-southwest,3.3,No
2018/11/26,21:20,0.784,1.186,0.831,1.486,1.072,0.456,0.804,0.759,south-southwest,3.9,No
2018/11/26,21:30,0.783,1.186,0.831,1.486,1.072,0.455,0.802,0.761,south-southwest,4.2,No
2018/11/26,21:40,0.783,1.188,0.830,1.486,1.075,0.455,0.805,0.759,southwest,3.7,No
2018/11/26,21:50,0.783,1.185,0.830,1.482,1.074,0.455,0.804,0.760,south-southwest,3.6,No
2018/11/26,22:00,0.784,1.185,0.831,1.485,1.072,0.455,0.802,0.759,south-southwest,3.7,No
2018/11/26,22:10,0.785,1.186,0.830,1.484,1.073,0.453,0.803,0.761,south-southwest,3.7,No
2018/11/26,22:20,0.783,1.186,0.828,1.482,1.075,0.455,0.803,0.761,south-southwest,3.9,No
2018/11/26,22:30,0.784,1.185,0.830,1.481,1.073,0.455,0.803,0.759,south-southwest,4.1,No
2018/11/26,22:40,0.785,1.186,0.830,1.481,1.073,0.455,0.804,0.760,south-southwest,4.7,No
2018/11/26,22:50,0.783,1.182,0.832,1.480,1.070,0.455,0.803,0.760,south-southwest,5.7,No
2018/11/26,23:00,0.784,1.184,0.830,1.481,1.071,0.454,0.803,0.762,south,5.3,No
2018/11/26,23:10,0.782,1.187,0.830,1.482,1.072,0.455,0.803,0.757,south,5.5,No
2018/11/26,23:20,0.783,1.186,0.832,1.486,1.072,0.453,0.804,0.759,south-southwest,5.7,No
2018/11/26,23:30,0.783,1.186,0.831,1.485,1.073,0.455,0.803,0.759,south,6.0,No
2018/11/26,23:40,0.784,1.187,0.830,1.488,1.072,0.453,0.802,0.760,south,6.0,No
2018/11/26,23:50,0.784,1.185,0.830,1.486,1.071,0.454,0.804,0.759,south,5.6,No
